Location: Stara Lesna
(49.1528°N, 20.2911°E)
Time: 17:28:57
(UTC+02:00)

Iridium 4 Rocket - Pass Details

Date: 21 September 2019
Orbit: 585 x 905 km, 86.9° (Epoch: 17 October)

Event Time Altitude Azimuth Distance (km) Brightness Sun altitude
Exits shadow 04:43:46 27° 218° (SW) 1,213 4.1 -16.7°
Maximum altitude 04:45:49 47° 277° (W) 816 3.3 -16.3°
Drops below altitude 10° 04:49:55 10° 352° (N) 1,939 5.8 -15.7°
Sets 04:52:08 0° 359° (N) 2,831 6.7 -15.4°
